Location: Petruro
(41.0333°N, 14.7833°E)
Time: 08:31:09
(UTC+00:00)

Cosmos 1606 - Pass Details

Date: 20 June 2021
Orbit: 501 x 527 km, 82.5° (Epoch: 26 July)

Event Time Altitude Azimuth Distance (km) Brightness Sun altitude
Rises 00:58:01 0° 346° (NNW) 2,646 7.0 -20.2°
Reaches altitude 10° 01:00:12 10° 341° (NNW) 1,749 5.9 -20.0°
Maximum altitude 01:03:55 49° 266° (W) 670 3.0 -19.6°
Enters shadow 01:04:02 49° 259° (W) 672 2.9 -19.6°
